Погода в Лопатах

Россия / Костромская область     57°56′05″N   43°37′26″E
темп.,
°C
ветер,
м/с
пор.,
м/с
влажн.,
%
обл.,
%
осадки,
мм/ч
давл.,
гПа
погр.,
м
15 апреля, чт
чт1500:00+9ююз2587100 0.0 101976
03:00+8ююз2280100 0.0 101911
06:00+6ссз1193100 0.0 101926
09:00+12ссв347681 0.0 1019339
12:00+13ссв5578100 0.0 1020731
15:00+9ссв5983100 0.0 1022641
18:00+7св51182100 0.0 1024663
21:00+5св5138299 0.0 1025597
16 апреля, пт
пт1600:00+4всв5138484 0.0 1026593
03:00+4всв4118786 0.0 1027509
06:00+2св4127758 0.0 1028453
09:00+6всв595519 0.0 1029672
12:00+10всв574013 0.0 10291032
15:00+11всв57395 0.0 10281199
18:00+9всв48515 0.0 1029715
21:00+5всв310715 0.0 1030260
17 апреля, сб
сб1700:00+2всв39805 0.0 1031200
03:00+1св28847 0.0 1031171
06:00+1св38825 0.0 1032210
09:00+7всв46524 0.0 1032651
12:00+11всв45410 0.0 10311289
15:00+12св45381 0.0 10301488
18:00+10св36495 0.0 1029327
21:00+5св23705 0.0 103043
18 апреля, вс
вс1800:00+3св27800 0.0 1029141
03:00+2св28855 0.0 1030169
06:00+2св2881100 0.0 1030214
09:00+8св365680 0.0 1029653
12:00+11св464380 0.0 10291427
15:00+13св56418 0.0 10281888
18:00+9всв586253 0.0 1029879
21:00+5всв4971100 0.0 1031619
19 апреля, пн
пн1900:00+3всв31076100 0.0 1032384
03:00+1всв396664 0.0 1033282
06:000всв396845 0.0 1034318
09:00+5в464386 0.0 10341065
12:00+8в463354 0.0 10331659
15:00+9в45300 0.0 10321832
18:00+7в36380 0.0 1032615
21:00+2в26590 0.0 1033109